Location: Gollag?dem
(16.8053°N, 80.8024°E)
Time: 13:12:31
(UTC+00:00)

Cosmos 1709 Rocket - Pass Details

Date: 13 August 2020
Orbit: 947 x 1003 km, 82.9° (Epoch: 24 September)

Event Time Altitude Azimuth Distance (km) Brightness Sun altitude
Rises 23:16:41 0° 346° (NNW) 3,621 7.1 -15.3°
Reaches altitude 10° 23:19:16 10° 340° (NNW) 2,670 6.3 -14.7°
Maximum altitude 23:25:03 47° 269° (W) 1,235 4.2 -13.4°
Drops below altitude 10° 23:30:50 10° 196° (SSW) 2,661 6.0 -12.1°
Sets 23:33:24 0° 191° (S) 3,607 6.7 -11.6°
